Wind_Speed
18 18 18 16 15 16 16 14 14 14 13 13 12 11 11 10 10 10 9 6 6 8 9 7 4 1 1 2 3 3 3 4 4 5 7 8 9 10 11 12 12 13 13 13 13 13 12 12 11 12 12 12 12 12 12 12 12 12 12 12 12 12 12 12 12 11 11 11 11 11 12 12 12 12 13 13 13 14 14 14 14 14 14 14 14
16 17 16 14 14 15 15 14 14 14 13 13 12 12 11 10 9 10 8 6 7 8 8 6 3 2 3 3 3 3 4 5 5 6 7 8 9 11 12 11 11 11 12 12 12 12 13 12 11 12 12 12 12 12 13 13 12 12 12 12 11 11 11 11 11 11 11 11 11 11 11 12 12 12 12 13 13 13 14 14 14 15 15 15 15
15 16 14 14 15 16 16 16 15 14 13 12 12 13 11 9 10 11 8 7 8 8 7 5 3 3 4 4 4 4 5 5 6 6 7 9 10 11 10 9 9 10 9 9 10 11 12 11 11 12 12 12 12 12 12 12 12 12 11 11 11 10 10 10 10 11 11 11 11 11 11 11 11 12 12 12 12 12 13 13 13 14 14 15 15
15 14 12 13 15 16 16 17 17 13 12 12 12 14 11 9 11 10 7 7 8 8 7 5 4 4 5 6 5 4 4 5 6 6 7 9 10 9 7 7 8 8 7 6 8 10 10 11 11 11 12 12 12 12 12 11 11 11 11 11 11 10 10 10 10 10 11 11 11 11 11 11 11 11 11 12 12 12 12 13 13 14 14 15 15
15 14 13 13 14 16 16 17 18 15 12 12 13 15 13 10 11 11 9 8 8 7 7 6 5 4 5 6 4 4 5 5 5 6 7 9 9 7 6 6 6 6 5 4 5 7 8 9 9 10 12 12 12 11 11 11 11 11 11 11 10 10 10 10 10 10 10 10 10 10 10 10 10 10 11 11 11 11 11 11 12 12 13 14 15
14 13 13 14 15 14 14 14 16 16 15 15 14 15 14 12 12 12 11 11 9 8 7 7 6 5 6 5 4 4 5 5 5 5 7 8 6 5 5 5 6 6 5 4 3 5 7 8 8 9 10 11 11 10 10 9 9 9 9 9 9 9 9 9 9 9 9 9 9 9 9 9 8 8 8 8 9 9 9 10 10 11 12 13 14
11 11 12 14 14 13 12 13 15 15 16 17 16 14 13 12 12 12 12 11 9 8 7 6 6 6 6 4 4 4 5 5 4 5 6 6 4 4 4 4 5 5 4 4 3 4 6 7 7 8 9 9 9 8 8 8 7 7 7 8 8 8 8 8 8 8 8 8 7 7 7 6 6 6 7 8 8 9 9 9 10 10 11 11 12
9 10 12 13 13 13 13 13 14 14 15 16 16 15 12 10 11 11 11 10 8 6 5 5 6 6 6 5 4 5 4 4 4 4 5 5 3 3 3 4 4 4 4 4 3 3 5 7 7 8 8 8 7 7 7 6 6 7 7 7 8 8 7 7 7 7 6 6 6 5 6 6 6 6 6 6 6 7 7 8 8 9 9 9 9
10 11 13 12 12 14 14 14 13 14 16 15 15 16 14 11 10 10 9 8 6 5 4 5 5 6 6 5 5 5 4 5 4 3 3 3 3 2 2 3 3 3 6 5 3 3 5 6 7 8 8 8 7 7 6 6 6 6 7 7 7 7 6 6 6 6 5 5 5 5 5 5 4 4 4 4 4 5 6 7 7 8 8 8 7
10 11 12 13 13 13 15 16 14 14 16 14 13 14 14 11 10 9 9 7 6 4 4 5 5 6 6 5 5 5 4 5 4 3 2 2 3 2 2 3 2 4 6 3 2 1 5 6 7 8 8 8 8 7 6 6 6 6 6 6 6 6 6 6 5 5 4 4 4 4 4 3 3 3 3 3 4 4 5 6 7 7 7 7 7
10 11 12 12 13 14 15 15 13 13 15 15 14 14 13 11 9 9 9 7 6 5 5 6 6 7 6 6 5 5 5 4 4 3 2 3 3 2 1 2 2 3 4 3 3 1 4 6 8 9 9 9 7 6 6 6 6 6 6 6 5 5 5 5 4 4 4 4 4 3 3 3 3 3 4 4 4 5 5 6 7 7 8 8 8
10 11 11 12 13 16 15 13 12 13 15 16 16 15 12 10 10 10 9 8 7 6 5 6 7 7 7 6 5 5 4 4 4 4 2 2 2 1 1 1 1 2 3 3 3 2 3 5 7 9 9 8 7 6 6 6 6 6 5 5 5 4 4 4 4 4 4 4 4 3 3 3 4 4 4 5 5 5 6 6 7 8 8 8 8
10 10 11 12 14 17 16 13 12 14 16 16 16 15 12 10 11 11 10 9 8 6 6 6 7 7 7 6 5 5 4 4 4 4 2 2 2 1 1 2 1 1 2 2 3 4 4 4 6 7 8 7 6 6 6 6 5 5 5 5 5 4 4 4 4 4 4 4 3 3 3 3 3 3 4 5 6 6 7 7 8 8 8 8 8
11 11 11 12 14 16 16 14 13 15 16 16 15 14 12 11 11 11 10 9 8 7 6 7 8 7 7 7 6 5 5 5 5 4 3 3 3 4 3 2 1 2 2 3 4 4 5 6 6 6 6 6 7 6 6 5 5 5 5 5 5 5 5 4 4 4 4 3 3 2 2 3 3 4 5 6 7 7 8 8 8 8 9 9 9
11 11 11 12 13 15 14 13 13 15 15 15 15 14 12 12 12 11 10 10 9 8 7 8 8 7 7 7 6 6 6 6 6 5 4 3 4 4 3 2 2 3 4 2 3 4 5 6 6 6 6 6 7 6 6 5 5 5 5 5 5 5 4 4 4 3 3 3 2 2 2 2 3 4 5 6 7 7 8 8 8 8 9 9 9
11 11 12 12 13 13 13 13 14 15 16 15 15 14 13 12 12 12 11 10 10 9 9 9 8 8 8 8 8 8 8 7 7 6 5 4 5 5 4 4 3 4 4 3 3 4 4 4 5 6 6 6 6 6 6 5 5 6 5 5 5 4 4 4 3 3 3 3 2 2 2 2 3 3 4 5 5 6 7 7 7 8 9 9 10
11 11 12 12 12 13 13 14 15 15 16 15 14 14 13 13 13 13 12 12 11 10 10 10 9 9 9 9 9 10 9 8 7 6 6 5 6 6 6 5 4 5 5 4 4 5 5 5 5 6 6 6 6 6 6 6 6 6 5 5 5 4 4 4 3 3 3 2 2 2 2 2 2 3 3 4 5 6 7 7 8 8 9 9 10
13 13 13 12 12 13 13 14 15 16 16 16 15 15 15 15 14 14 13 13 12 12 11 11 10 10 10 10 10 10 9 8 7 7 7 6 6 7 7 7 6 6 6 5 5 6 6 6 6 6 6 6 6 6 6 6 6 6 5 5 5 4 4 4 4 3 3 2 2 2 2 2 3 4 4 5 5 6 7 7 8 9 9 10 10
14 14 13 12 13 13 13 15 16 16 16 17 17 17 16 16 15 14 14 14 13 13 12 11 11 10 11 10 10 10 9 8 7 7 7 6 6 7 7 8 7 7 7 6 6 7 7 7 7 7 7 7 7 7 7 7 7 7 7 6 6 5 5 5 4 4 3 3 2 2 3 3 4 5 5 6 6 6 7 7 9 9 10 10 10
16 15 15 14 13 13 14 15 16 17 18 18 18 18 17 16 16 15 15 15 14 14 12 11 11 10 11 11 11 10 9 8 7 7 7 7 6 7 7 8 8 8 8 8 8 8 8 8 7 7 7 7 8 8 8 8 8 7 7 6 6 6 6 6 5 5 4 3 3 3 4 4 5 5 6 6 6 6 7 8 9 9 10 10 10
17 17 16 15 14 14 15 17 17 18 19 19 19 19 18 17 16 15 15 15 15 14 12 11 11 11 11 11 11 10 9 8 8 8 8 7 7 7 8 8 8 8 8 9 10 10 9 8 7 7 8 8 8 8 8 8 8 7 7 7 7 7 7 7 6 5 4 4 4 4 4 5 5 6 6 6 7 7 8 9 9 10 10 10 10
17 18 17 15 14 15 17 18 18 19 19 19 19 19 18 17 16 16 16 16 15 13 12 12 12 11 12 12 11 10 9 9 8 8 8 8 8 8 8 8 8 8 9 10 11 11 10 9 9 9 9 9 8 8 8 8 8 8 8 8 8 8 8 7 7 6 5 5 4 4 5 5 5 6 6 7 8 8 9 10 10 10 10 10 11
16 17 17 15 15 16 18 18 18 18 19 19 19 19 19 18 17 17 17 16 15 13 12 12 12 12 12 11 10 9 9 9 9 9 9 9 9 9 9 9 9 9 10 12 12 12 10 10 11 10 9 8 8 8 8 8 8 8 9 10 10 10 9 8 8 7 6 6 5 5 5 5 6 6 7 8 9 9 10 10 10 10 10 11 11
17 16 17 16 16 17 18 18 18 18 19 20 19 19 18 18 17 18 18 17 16 14 13 13 13 12 12 11 10 10 10 9 9 9 9 9 10 10 11 10 10 11 12 13 13 12 11 11 11 10 9 9 8 8 8 9 9 10 11 11 11 11 10 9 8 7 6 6 6 6 6 6 6 7 8 8 9 10 10 11 11 11 11 11 12
18 18 18 18 17 18 18 18 18 19 20 20 19 19 18 18 18 18 18 18 17 16 15 14 14 13 12 12 11 11 10 10 10 10 10 9 10 11 11 11 11 12 14 15 14 13 12 11 10 10 9 9 9 9 9 10 11 12 12 12 12 11 11 10 9 8 7 7 7 7 7 7 7 8 8 9 9 10 11 11 11 11 12 13 14
20 20 21 20 19 18 19 19 19 19 20 20 19 19 19 19 19 19 19 19 18 17 15 15 14 13 13 13 12 12 11 11 10 10 10 9 10 10 11 11 12 14 16 16 15 14 12 11 11 11 10 10 10 10 10 11 12 12 12 12 11 11 11 10 10 9 8 8 8 8 8 8 8 9 9 10 10 11 11 12 12 13 14 15 16
21 22 21 21 20 19 19 19 19 20 21 21 20 20 20 20 19 19 19 19 18 17 15 15 15 14 14 14 13 12 12 11 11 10 9 8 9 9 10 11 13 15 17 17 16 13 11 12 12 12 12 11 11 11 12 12 12 12 11 11 11 11 11 11 11 10 10 10 10 10 10 10 10 10 11 11 12 12 13 13 14 15 16 17 17
22 21 21 21 21 20 19 19 19 20 22 22 22 21 20 20 20 20 20 19 18 17 16 16 15 16 16 15 14 12 12 11 10 10 8 8 9 10 11 12 13 16 17 18 16 12 12 13 13 12 13 12 12 12 12 12 11 11 11 11 11 12 12 12 12 12 11 11 11 11 11 11 11 12 12 13 13 14 14 15 16 17 18 18 19
23 22 22 22 21 20 19 19 21 22 23 23 22 21 21 21 21 21 21 20 19 18 17 16 16 17 16 15 14 12 12 11 11 10 9 8 10 10 11 12 14 16 18 17 15 12 13 13 13 13 13 13 13 13 12 12 12 11 11 11 12 12 13 13 13 12 12 12 12 12 12 12 12 13 13 14 14 15 16 17 17 18 19 20 20
24 24 24 22 20 20 19 20 23 24 23 23 22 21 21 21 21 22 22 21 20 19 18 17 17 18 17 15 14 13 12 12 12 12 11 11 11 12 12 13 15 17 18 17 15 14 14 14 15 14 14 14 15 14 13 13 13 13 13 12 13 13 14 13 13 13 13 13 13 13 13 14 14 14 14 15 16 16 17 18 19 20 21 22 22
25 27 26 22 21 21 20 21 23 24 23 23 22 21 22 22 22 23 22 21 20 20 19 18 18 17 16 16 14 13 13 13 13 13 12 12 13 13 14 15 15 17 18 17 17 16 15 16 16 16 16 16 16 16 15 15 14 14 14 14 14 14 14 14 14 14 14 14 14 15 15 16 16 16 16 16 17 18 19 20 21 22 23 23 24
27 29 27 23 22 21 20 21 23 24 24 24 23 22 22 23 23 23 23 22 21 20 19 18 18 17 16 16 15 14 14 14 14 14 13 13 13 14 15 15 16 18 19 18 17 17 17 17 17 17 17 17 18 17 17 17 16 16 16 16 16 16 15 15 15 16 16 17 17 17 18 17 17 17 17 18 19 20 21 22 23 24 25 26 26
28 29 27 23 22 21 20 21 24 24 24 24 23 23 23 23 24 23 23 22 21 20 18 17 17 16 16 16 15 15 15 14 14 14 14 14 14 14 16 17 18 19 19 18 18 17 17 17 18 18 18 19 19 19 19 19 19 18 17 17 17 17 17 17 18 19 19 19 19 19 20 19 19 19 19 20 20 21 23 24 25 26 27 28 29
27 29 27 23 21 21 21 23 25 25 24 24 24 24 24 24 24 23 23 22 21 20 18 17 17 16 16 16 15 15 15 15 14 14 14 14 14 15 17 18 19 19 19 19 19 19 18 18 19 19 19 20 20 21 21 21 21 20 19 19 19 19 19 20 20 21 21 21 21 21 21 21 21 21 21 22 23 23 24 26 27 28 29 31 32
27 29 27 24 23 22 22 24 26 25 25 24 24 24 24 23 23 24 24 23 21 20 18 18 17 16 16 16 15 16 15 14 14 14 14 15 15 16 17 18 19 19 19 20 20 20 20 19 19 20 20 20 21 22 22 23 22 22 22 22 21 21 21 22 23 23 23 23 23 23 23 23 23 23 24 24 25 25 26 27 29 30 31 32 33
26 28 27 25 24 23 23 24 25 25 25 25 24 24 24 23 24 24 24 22 21 20 19 19 18 17 17 17 16 16 16 15 14 14 15 15 15 16 16 17 18 19 19 19 20 20 20 20 20 20 21 21 22 23 24 24 25 24 24 24 24 23 24 24 25 25 25 25 25 25 26 26 26 26 26 26 27 28 28 29 30 31 32 32 33
25 27 27 26 24 24 24 24 24 24 23 24 24 24 24 23 24 24 23 22 21 21 20 19 19 18 18 18 18 18 17 16 16 15 16 16 16 16 16 16 17 18 18 18 19 19 20 20 20 21 22 22 23 24 25 26 26 27 27 27 26 26 26 26 27 27 26 26 27 27 27 28 28 28 29 29 29 30 31 31 32 32 33 34 35
26 28 28 26 25 25 25 25 24 22 22 24 25 25 24 24 24 24 22 22 22 21 20 20 20 19 19 19 19 19 18 18 17 17 18 18 18 18 17 17 18 18 19 19 19 20 20 21 22 23 24 25 26 26 27 27 28 28 29 29 29 28 27 27 28 28 28 28 28 29 29 30 30 31 31 31 31 32 33 33 34 35 36 37 37
28 30 30 29 27 25 25 25 23 23 24 25 25 25 24 24 24 23 23 22 22 21 20 20 19 18 19 19 19 19 18 18 18 17 18 19 19 19 19 19 19 20 21 21 22 22 22 23 24 25 26 26 27 28 29 29 29 30 30 31 30 30 29 29 29 30 30 30 30 30 31 31 32 33 33 33 34 35 36 36 36 37 39 40 40
28 29 30 28 26 25 24 24 24 24 25 25 25 25 25 24 24 24 23 23 22 21 20 19 18 17 18 19 19 18 18 18 17 17 17 19 20 21 21 21 21 22 22 22 23 24 25 25 26 27 27 28 28 29 30 30 30 31 31 30 30 31 31 30 30 30 31 32 33 33 33 34 35 35 36 36 37 38 38 38 38 40 42 43 42
29 27 26 25 24 24 24 25 25 25 24 24 25 25 25 25 25 24 24 23 22 20 20 19 18 17 19 20 18 18 18 18 18 17 18 20 21 23 23 24 24 24 24 24 25 26 27 27 28 29 29 29 29 30 30 30 31 31 31 30 29 30 30 29 29 30 31 33 35 36 37 39 40 41 41 40 40 41 41 40 41 43 44 44 44
28 25 25 25 24 25 26 26 25 24 24 24 25 25 25 25 25 24 24 23 22 21 21 20 19 19 19 19 18 18 19 19 18 18 18 20 21 22 23 24 24 25 25 26 26 27 28 28 29 30 30 30 31 30 30 30 29 29 29 29 29 29 30 29 29 30 33 34 36 36 37 39 42 43 44 44 43 43 43 43 44 45 45 46 47
26 26 27 26 25 26 26 25 25 24 24 24 24 25 25 25 24 24 24 23 22 23 22 21 20 20 19 19 18 18 18 19 19 19 20 21 21 22 23 23 23 24 26 27 28 29 29 29 30 30 30 30 30 30 30 30 30 29 30 30 30 31 31 31 30 31 33 34 35 35 36 38 40 42 43 44 44 44 45 47 48 48 49 50 51
26 28 28 25 24 25 25 25 25 25 25 25 25 24 24 25 25 24 24 24 24 24 23 22 22 22 21 21 20 20 20 21 22 23 23 24 24 25 25 25 25 25 26 28 29 31 31 31 31 31 31 30 30 30 31 31 31 32 32 33 33 32 32 33 34 34 35 37 38 38 39 40 40 41 42 43 44 46 47 49 50 51 52 52 53
29 29 26 23 23 24 25 27 27 27 27 27 25 24 24 25 25 25 25 25 25 25 25 24 25 25 24 23 23 22 22 23 24 26 27 28 28 28 28 27 27 27 28 28 29 30 31 31 31 31 32 32 31 32 32 32 33 33 34 35 34 33 33 36 38 40 41 42 43 43 43 42 42 42 44 45 46 48 49 51 52 53 54 55 56
30 27 24 23 24 25 27 29 30 30 29 27 25 24 24 25 25 26 26 26 26 26 26 26 26 26 26 25 24 24 24 25 28 30 31 32 32 31 31 30 30 30 30 30 30 30 30 30 31 31 32 32 32 33 34 34 34 34 35 35 33 33 35 39 41 42 43 44 45 46 46 45 45 46 48 50 51 52 53 55 56 58 59 60 61
27 24 23 24 25 26 29 31 31 31 29 26 25 25 25 25 25 26 26 26 27 27 28 28 27 26 26 26 25 24 23 25 29 31 32 33 33 32 32 31 31 32 33 32 32 31 30 30 31 31 32 33 33 33 34 35 35 35 36 35 33 33 37 41 42 43 45 46 48 48 47 47 48 49 51 55 57 59 61 63 64 65 65 65 64
26 24 25 26 27 28 30 31 31 30 29 28 27 26 26 26 25 25 26 26 27 27 28 28 27 26 26 26 26 25 23 23 27 30 30 32 33 33 31 31 31 33 34 34 33 32 31 31 32 32 32 33 33 34 34 35 36 37 38 37 36 36 39 42 43 46 47 49 50 50 49 50 52 54 56 59 63 65 67 69 69 68 67 65 65
25 24 25 26 28 29 30 31 30 30 30 29 28 27 26 26 25 25 26 27 27 28 28 28 28 28 29 30 30 29 27 29 33 34 34 35 36 35 34 35 35 34 35 35 34 32 32 32 32 32 32 32 33 34 35 37 38 39 40 41 41 42 43 44 47 48 50 52 53 54 54 55 57 59 61 64 67 69 70 71 70 69 68 66 65
25 25 26 27 28 28 29 30 30 30 30 29 29 28 27 26 26 27 28 28 28 28 29 29 31 31 32 33 33 31 31 32 35 37 37 37 37 38 39 39 37 36 35 34 32 32 32 32 32 32 33 33 34 35 37 39 41 42 43 44 45 47 48 49 51 51 52 53 55 57 59 60 62 65 66 68 71 72 72 72 72 70 68 67 65
27 28 27 28 28 28 29 30 30 30 30 29 28 27 26 26 26 27 27 27 27 29 30 31 32 32 32 32 32 32 32 33 34 34 34 34 35 38 39 39 38 38 37 34 33 33 33 32 33 34 34 35 37 39 41 42 44 45 47 48 50 52 53 54 54 55 55 56 58 60 62 63 65 67 69 71 72 74 74 74 73 72 70 68 66
Wind_Direction
258 260 266 270 272 267 256 251 254 255 257 255 251 250 247 244 245 247 248 249 256 266 268 267 270 280 290 293 298 310 313 307 296 284 289 299 301 300 298 295 293 287 280 273 266 259 254 249 245 243 242 241 242 242 241 240 238 238 239 240 241 243 245 250 255 260 264 266 268 269 271 272 272 271 271 270 271 272 272 273 273 272 272 273 273
257 261 267 268 267 263 257 253 251 249 251 249 248 247 244 242 243 244 242 239 246 255 258 267 291 293 303 315 306 301 296 295 298 299 307 310 308 305 301 299 299 295 286 274 262 252 247 244 238 235 235 235 236 236 236 238 239 240 241 243 244 246 250 253 258 262 264 266 267 269 270 271 272 272 272 272 272 274 274 275 276 276 277 276 276
257 262 265 265 264 261 258 252 243 241 244 245 247 245 241 239 241 239 233 233 238 242 245 262 292 285 293 305 293 284 283 289 299 312 317 312 309 307 302 301 304 304 294 275 257 246 242 240 236 230 228 228 231 232 231 233 236 239 241 242 244 246 249 253 256 258 260 262 263 265 266 267 269 270 272 273 274 276 277 278 279 280 281 281 281
254 257 258 258 260 259 257 247 233 234 241 240 245 244 235 229 234 229 219 230 236 238 243 255 280 283 283 286 284 282 285 294 307 318 319 313 312 312 307 308 311 310 306 283 253 242 239 237 233 228 224 221 224 226 226 229 232 235 237 238 240 242 245 249 251 253 255 256 258 260 262 263 265 268 271 273 275 278 279 280 281 281 281 282 282
253 254 253 254 259 259 255 241 228 232 240 237 243 243 231 220 227 224 217 230 232 233 246 254 262 264 268 277 282 286 290 302 318 322 319 318 319 322 323 324 321 314 314 302 257 240 235 230 227 225 222 218 216 219 221 224 226 229 234 238 241 244 246 248 249 250 251 253 257 259 261 263 265 268 271 275 278 281 282 282 282 281 280 279 279
253 253 250 255 262 254 244 235 230 236 239 237 244 246 237 226 227 228 226 231 228 226 238 248 257 260 264 273 277 284 294 312 330 327 321 324 325 330 336 337 332 320 317 313 277 244 231 221 218 218 217 216 213 214 217 221 224 228 234 239 243 245 247 247 248 250 252 255 258 261 264 267 271 276 281 286 290 292 292 291 290 288 284 280 276
250 247 246 256 259 241 231 232 231 235 237 237 240 242 242 232 226 229 228 226 219 215 225 238 256 267 272 276 273 282 299 316 332 331 326 328 325 326 335 338 332 330 333 323 290 246 224 213 208 206 205 208 210 209 211 215 220 226 232 237 240 241 243 244 246 249 253 257 260 265 272 280 287 292 296 298 300 302 304 303 302 299 295 289 282
241 241 245 254 248 227 224 226 228 235 234 236 238 236 235 229 226 229 224 216 204 201 221 238 255 268 279 283 275 283 293 303 315 327 333 333 325 322 332 341 337 346 356 339 301 241 215 207 200 195 192 193 198 200 203 209 215 223 230 235 239 240 242 245 248 251 253 257 262 269 276 283 288 291 295 298 302 306 309 311 312 312 309 304 297
237 243 245 245 237 226 220 220 230 238 232 236 241 234 230 227 230 231 221 214 209 209 232 252 261 268 279 279 269 272 273 282 299 327 348 342 336 332 340 354 5 358 349 340 315 231 202 200 194 188 186 185 188 192 196 205 216 227 233 235 238 240 243 246 247 249 251 256 260 267 271 276 281 285 292 298 305 308 313 319 323 327 328 326 322
234 242 243 239 235 225 217 220 233 235 228 234 235 230 229 226 227 228 222 220 223 231 253 269 272 265 271 273 264 259 258 274 296 326 351 342 338 341 345 357 14 0 355 1 7 185 184 192 189 184 186 186 187 190 196 209 221 228 229 229 234 237 240 241 243 246 249 255 257 258 258 261 269 278 289 297 303 309 318 325 329 334 338 341 342
234 240 242 239 230 219 216 226 236 233 229 232 229 227 229 223 220 224 226 230 235 246 263 272 272 264 265 265 256 253 254 270 297 316 333 343 338 343 9 5 1 4 13 30 30 81 167 184 188 185 188 189 191 198 210 223 225 223 223 228 232 232 233 234 235 235 238 243 244 242 244 253 269 282 295 304 313 320 327 330 332 334 338 343 345
232 238 240 238 224 212 216 230 236 230 231 234 230 227 227 220 217 221 225 233 241 253 269 272 272 268 266 266 260 259 263 277 297 305 312 334 337 22 72 23 350 1 21 35 46 83 134 168 181 186 191 195 200 209 221 228 224 219 221 224 222 217 217 219 219 219 223 229 234 240 251 267 283 295 309 319 325 326 327 328 329 330 333 337 339
231 238 243 237 222 213 220 233 234 226 228 233 230 225 223 218 218 222 223 232 244 255 267 271 274 274 268 268 269 270 275 283 293 293 289 297 274 230 290 317 320 2 46 69 90 107 119 140 161 175 188 198 202 208 215 218 215 212 215 215 210 207 205 206 214 222 229 233 241 251 263 280 293 306 316 321 322 322 325 326 327 327 329 332 333
233 239 240 228 219 220 226 232 231 227 227 229 227 223 220 215 218 225 229 236 244 253 262 266 271 274 269 265 264 266 271 276 277 273 267 268 249 247 271 275 215 125 113 93 98 117 127 135 145 159 175 185 185 189 197 201 201 203 209 211 208 207 204 205 217 234 244 247 253 264 278 292 304 314 317 318 319 322 324 325 326 326 327 328 328
231 232 225 217 221 225 224 225 227 228 228 224 222 222 221 218 220 226 232 239 244 249 254 258 262 264 260 256 249 249 255 259 258 255 253 252 247 247 228 197 168 148 150 129 115 128 137 143 148 157 167 171 173 179 187 193 198 204 208 211 214 214 211 215 224 239 253 262 271 280 291 299 307 314 314 316 317 318 319 318 321 322 322 323 321
226 221 213 212 219 216 214 220 223 226 229 224 218 220 224 224 226 228 231 237 242 246 248 251 253 252 248 243 234 234 242 246 246 247 250 246 241 237 210 203 208 180 170 165 165 167 169 172 168 168 172 174 179 183 189 196 203 209 211 214 222 224 224 228 231 243 255 263 270 273 282 289 296 303 306 308 309 310 311 313 316 317 318 318 317
216 207 200 201 208 209 212 220 223 225 227 225 220 221 224 226 228 228 229 234 237 241 244 247 248 245 241 237 231 232 237 241 243 245 247 240 230 229 229 231 218 188 183 184 187 191 198 199 190 184 186 189 192 192 196 201 207 213 217 219 223 225 228 230 229 234 241 247 253 257 268 279 287 292 294 297 301 305 309 312 314 313 313 312 312
203 196 192 196 207 214 217 222 225 225 225 225 223 223 223 225 227 228 230 233 235 237 239 243 244 243 241 240 237 239 239 240 244 247 249 242 226 221 230 235 216 197 200 202 200 206 207 202 197 197 197 198 200 199 202 209 212 214 220 222 224 224 224 222 220 223 225 230 239 249 266 280 285 288 289 292 297 300 305 308 308 307 305 304 305
200 200 203 209 216 219 221 225 226 224 224 226 226 225 224 225 227 229 232 235 235 235 236 239 241 242 244 246 244 244 245 243 244 249 251 247 233 222 221 222 215 206 210 212 210 210 207 202 201 201 202 205 207 207 211 217 217 217 221 222 223 221 219 215 212 212 215 223 239 256 273 281 283 287 288 291 292 294 300 304 303 302 300 299 299
208 211 215 218 218 218 222 225 225 224 225 225 226 226 226 226 228 230 233 234 234 233 232 235 238 239 244 247 246 246 248 249 248 250 248 244 238 229 221 217 214 212 212 213 212 210 207 205 203 203 208 214 215 214 217 221 222 223 224 224 221 218 215 211 209 211 216 226 244 262 274 279 283 288 291 292 294 297 301 302 301 299 297 296 295
212 213 215 217 217 220 223 224 225 225 224 224 225 226 226 228 230 231 231 232 232 232 231 234 236 238 240 243 245 246 248 250 253 252 247 243 237 233 229 220 215 216 215 210 210 210 207 206 208 211 218 224 225 224 224 225 228 228 227 226 223 220 217 216 215 216 220 229 247 262 272 278 285 291 294 297 300 303 304 302 299 296 293 292 292
209 210 215 219 221 222 225 225 226 227 227 227 227 227 228 229 230 230 228 228 230 231 231 235 238 239 239 240 241 241 243 248 254 255 253 250 242 236 231 219 212 214 214 211 212 211 206 206 212 217 223 229 231 232 231 232 233 233 232 230 229 228 226 224 222 221 224 229 240 254 266 276 285 293 298 302 305 304 302 299 295 292 291 291 290
210 213 219 223 224 226 229 229 229 230 232 232 231 231 231 231 229 227 226 226 227 229 231 235 238 239 240 239 239 238 239 244 250 256 257 252 244 236 228 219 214 213 213 214 214 213 209 211 217 221 224 230 233 235 236 238 238 238 237 236 236 236 233 229 224 223 226 232 241 249 260 271 281 291 297 301 301 300 297 294 292 290 291 291 291
220 221 221 221 225 230 233 233 232 233 234 233 232 232 233 233 230 226 225 224 226 228 230 233 235 237 238 237 236 235 237 242 247 253 255 251 242 232 223 218 217 215 217 221 220 218 216 217 221 224 223 227 232 234 235 237 239 239 238 239 239 237 234 228 224 225 233 242 250 255 261 270 279 287 293 296 297 295 293 291 290 291 293 293 291
224 222 221 223 229 233 235 236 235 236 236 234 233 232 233 234 230 226 225 225 226 228 230 233 234 234 234 233 231 230 235 240 245 251 254 251 243 232 222 218 218 219 223 226 226 225 224 221 224 224 222 224 227 230 233 234 236 237 237 238 237 234 230 228 228 234 243 251 257 261 267 275 283 289 293 294 293 291 289 288 288 289 290 290 287
222 222 224 228 232 235 237 237 237 238 237 235 234 233 232 231 230 227 227 228 230 231 232 235 236 235 234 233 231 230 233 237 243 249 252 250 246 238 229 225 224 226 230 232 232 230 228 224 224 223 222 222 224 228 231 232 234 235 236 236 234 231 230 231 236 242 249 257 262 268 275 282 289 293 294 294 292 290 289 288 288 288 287 286 284
224 225 226 229 232 235 237 238 239 239 238 236 235 232 229 229 229 228 229 231 233 235 236 238 240 240 237 234 232 232 235 239 243 247 248 246 246 242 236 230 229 231 234 237 235 230 228 227 225 224 222 221 224 227 229 231 233 234 235 235 234 232 233 236 242 248 256 263 269 275 282 288 293 294 295 293 291 290 289 288 287 286 284 284 282
226 226 224 226 231 234 236 238 240 238 236 236 236 234 230 228 228 229 230 232 234 236 239 241 244 245 242 237 235 235 239 242 244 244 243 241 243 241 237 232 228 231 235 237 236 229 226 230 228 226 226 224 225 227 227 229 230 232 234 235 235 236 239 243 248 254 261 268 276 282 288 291 293 293 292 290 288 286 284 282 281 281 281 280 277
227 224 219 222 230 233 232 234 236 234 234 235 236 236 233 231 230 230 231 233 234 236 240 244 246 247 246 241 238 239 242 244 243 240 235 233 237 236 232 228 226 229 234 237 237 229 228 233 233 231 231 230 229 226 225 226 228 230 233 234 237 239 242 247 252 258 266 273 279 283 287 288 288 287 286 285 284 283 281 280 279 279 278 276 272
226 221 217 220 228 229 227 230 232 232 233 235 236 236 236 236 233 232 233 234 236 238 240 244 245 245 246 245 242 241 242 242 241 239 232 229 233 232 230 227 224 227 232 234 235 231 228 232 235 234 234 232 230 226 224 226 227 230 232 234 238 241 245 250 256 262 267 271 275 278 281 282 282 282 282 282 282 282 282 282 281 279 276 272 268
222 219 216 218 224 226 224 227 231 232 235 238 239 239 239 239 236 234 234 236 237 240 242 244 245 246 247 248 248 245 243 241 240 238 234 230 231 231 231 230 227 228 231 231 232 231 230 232 234 234 234 233 230 228 227 228 230 232 235 237 240 244 249 254 259 263 266 269 272 276 277 279 280 281 282 283 284 284 284 283 281 278 273 269 267
219 216 217 219 222 224 224 227 230 232 236 241 243 243 242 241 239 238 237 237 239 242 244 245 245 245 247 249 251 250 247 243 242 241 238 234 232 232 232 232 230 232 235 236 235 234 233 234 235 235 235 235 233 232 232 233 235 237 238 240 243 247 251 255 259 263 265 268 271 275 277 279 281 282 284 285 286 285 284 282 279 276 272 269 268
219 217 220 224 223 221 223 227 230 232 236 242 245 246 246 243 241 240 239 239 240 242 243 243 243 244 246 249 251 252 250 248 247 246 243 239 235 232 232 231 231 234 240 244 245 244 241 239 239 239 238 238 237 237 238 239 240 242 243 244 246 249 252 256 260 263 266 269 273 277 279 281 283 284 286 286 286 285 283 280 278 275 273 272 271
224 221 223 228 230 226 224 228 231 231 234 241 246 248 249 247 245 243 241 241 241 242 240 239 241 242 246 250 251 253 254 254 254 252 249 245 237 232 232 232 231 233 238 245 250 251 250 247 246 245 244 244 243 243 244 244 246 248 249 250 251 254 256 259 262 265 268 272 275 278 280 282 284 285 286 287 286 285 283 281 280 278 277 276 276
224 224 224 230 236 233 230 232 232 230 234 240 245 248 250 249 247 244 243 243 242 240 237 237 239 241 245 249 250 252 255 256 256 256 253 247 239 234 235 237 238 237 237 244 249 250 251 250 250 250 250 251 251 252 252 252 253 255 256 256 257 258 260 262 265 267 269 271 273 275 278 280 282 284 285 286 286 286 285 284 282 282 282 281 282
223 225 225 229 233 232 231 234 233 231 235 241 244 249 250 248 247 245 245 244 241 238 237 238 241 243 246 250 250 251 254 254 256 257 256 251 245 241 239 240 243 244 245 248 252 254 255 255 256 257 258 259 259 259 259 259 259 260 260 260 260 260 261 263 265 267 268 270 272 274 276 279 280 281 283 284 284 284 284 283 283 283 283 283 283
225 226 228 229 229 228 229 233 233 231 235 242 246 248 247 245 245 246 244 243 241 239 241 244 247 249 250 252 253 253 255 256 256 258 258 257 253 250 249 249 251 253 255 257 259 262 263 264 266 267 268 268 268 267 266 265 265 264 263 262 261 262 262 264 265 267 268 270 273 275 277 278 279 280 281 282 282 282 282 282 282 282 283 283 283
223 222 226 230 229 227 228 230 231 232 236 242 246 246 244 244 245 245 243 242 241 242 245 249 252 253 253 254 255 255 256 256 256 257 259 261 261 261 263 264 263 263 264 264 265 266 267 268 269 270 270 270 270 269 268 267 266 266 264 263 262 261 262 263 265 266 268 270 272 275 277 278 279 280 281 281 281 281 281 281 282 282 283 283 283
221 218 222 227 228 226 227 229 230 234 237 241 244 244 244 245 246 245 244 242 243 245 247 250 252 256 257 256 255 254 254 254 256 258 262 265 267 267 266 265 264 264 265 266 267 267 267 267 266 267 268 268 268 269 268 267 266 265 265 265 265 264 264 264 266 268 271 273 274 275 276 277 278 278 279 279 280 280 280 280 281 282 283 284 284
222 219 222 226 225 224 228 232 234 237 239 240 242 243 244 245 245 244 243 244 246 248 247 249 250 251 252 252 252 253 256 258 260 262 265 267 268 269 268 267 266 264 264 265 267 268 268 267 265 265 265 265 266 267 267 267 267 266 266 267 267 267 267 268 270 272 275 278 279 278 278 277 277 277 277 278 279 280 281 281 282 282 283 284 285
222 224 228 228 224 223 228 234 236 236 237 239 241 243 243 244 242 240 241 244 247 248 247 246 244 240 244 249 254 259 264 267 268 269 269 269 270 271 272 272 272 270 269 268 267 268 269 269 269 268 268 268 267 267 267 268 267 267 268 268 269 269 271 272 274 276 278 280 281 282 283 283 283 283 283 283 282 282 283 283 283 283 284 286 287
222 226 233 230 224 225 230 234 234 234 237 240 243 243 243 243 241 238 240 243 245 246 245 245 245 245 248 255 263 268 272 274 274 273 271 270 270 271 272 273 275 276 276 274 271 269 268 267 267 267 268 268 267 266 266 266 267 268 268 269 269 271 273 275 277 278 280 280 282 284 285 286 287 287 286 286 285 285 285 285 285 286 288 289 289
220 225 232 226 220 225 230 232 232 232 235 239 244 245 242 241 241 240 241 243 245 246 246 246 249 250 253 260 265 268 269 269 267 266 266 269 271 272 273 274 274 276 277 278 277 275 272 270 268 267 266 266 266 265 265 264 266 268 270 271 272 273 275 276 276 276 278 279 281 282 283 284 285 286 285 285 285 285 285 286 287 289 291 290 289
220 224 227 222 220 225 228 231 231 231 232 236 242 245 242 240 241 241 242 242 243 245 247 248 251 253 256 259 261 262 263 265 267 269 270 272 273 274 275 276 276 277 277 278 278 279 278 277 275 274 273 271 270 270 270 270 271 273 275 276 278 279 281 282 281 280 281 282 282 283 284 284 285 286 286 284 284 284 285 285 287 288 289 288 287
220 222 222 223 227 228 228 231 232 231 232 237 241 243 243 243 242 241 242 242 242 246 248 250 253 255 257 259 260 261 263 267 270 273 274 275 276 276 275 276 278 279 278 278 277 277 277 277 276 276 275 275 276 276 276 277 278 279 280 281 284 288 290 288 286 285 286 287 288 288 288 290 292 293 290 287 286 286 286 286 287 287 287 287 287
219 220 222 228 234 231 228 230 233 234 237 241 243 243 244 244 244 244 245 245 244 246 248 250 253 256 258 259 259 260 264 269 272 273 274 275 275 275 277 279 281 281 281 280 277 275 274 274 273 273 274 275 276 277 278 279 280 281 283 285 290 293 291 289 287 287 288 290 290 291 292 294 296 293 290 289 289 289 289 289 289 289 289 289 289
217 220 223 229 233 232 230 231 234 238 241 244 243 242 243 244 244 245 247 248 248 248 250 251 253 255 257 259 260 263 268 271 271 271 272 273 274 276 278 279 280 282 283 281 277 274 273 272 272 272 273 274 275 277 279 281 282 284 286 290 295 293 288 287 288 289 290 289 289 289 291 291 290 288 287 288 289 289 290 291 290 290 290 291 290
221 226 226 229 232 234 235 236 237 239 241 242 241 240 241 242 242 245 247 250 252 253 254 256 256 255 256 257 260 266 267 261 261 266 271 274 276 276 274 273 275 279 281 279 275 273 273 273 274 274 275 276 278 280 283 286 288 289 290 293 294 290 286 286 287 288 289 289 287 286 286 286 284 283 284 284 285 287 288 289 290 290 291 291 290
229 234 234 235 234 237 240 240 238 237 238 240 240 239 241 242 244 248 250 251 253 255 256 258 257 257 257 258 262 267 266 259 259 265 270 272 274 272 269 271 275 276 276 275 272 269 270 271 272 274 276 279 281 284 287 290 291 292 292 293 292 289 287 287 287 287 288 287 287 286 286 285 283 283 284 284 285 286 287 288 289 290 290 290 289
237 239 239 238 236 238 240 239 237 237 239 241 242 242 245 247 249 252 253 254 257 259 261 262 261 260 261 264 268 271 269 264 262 265 267 268 269 270 271 272 272 271 273 273 270 265 265 268 271 275 279 281 284 287 289 290 291 291 291 291 291 290 289 289 289 288 288 287 286 285 285 285 285 285 286 286 286 286 287 288 289 289 289 289 288
241 240 240 238 235 235 237 238 239 239 240 242 243 244 247 252 254 255 256 257 258 261 264 266 266 266 267 269 271 271 269 268 267 268 268 266 264 265 268 270 268 268 270 272 270 267 269 272 275 278 281 283 285 287 288 289 289 289 290 291 291 291 291 290 290 289 288 287 287 286 286 286 286 286 286 286 287 287 288 288 289 289 289 289 288
Height
5829 5828 5828 5828 5828 5828 5827 5828 5828 5828 5828 5828 5827 5827 5827 5828 5828 5827 5828 5830 5831 5829 5828 5828 5829 5830 5830 5830 5829 5828 5827 5826 5826 5825 5825 5824 5823 5823 5822 5821 5821 5820 5819 5819 5819 5819 5820 5820 5820 5820 5821 5821 5821 5821 5822 5822 5822 5822 5823 5823 5823 5823 5824 5824 5824 5824 5824 5824 5824 5823 5823 5823 5822 5822 5822 5822 5821 5821 5820 5820 5819 5819 5819 5818 5818
5827 5827 5826 5827 5827 5826 5826 5827 5827 5827 5827 5826 5826 5826 5826 5827 5827 5827 5828 5830 5830 5828 5827 5827 5828 5829 5829 5829 5828 5827 5826 5825 5824 5824 5824 5823 5822 5821 5820 5820 5819 5818 5817 5817 5817 5817 5818 5818 5818 5818 5819 5819 5820 5820 5820 5820 5821 5821 5821 5822 5822 5823 5823 5823 5823 5823 5823 5823 5823 5822 5822 5822 5821 5821 5821 5820 5820 5820 5819 5819 5818 5818 5817 5817 5817
5825 5825 5824 5825 5825 5825 5825 5825 5826 5826 5825 5825 5824 5824 5825 5827 5826 5826 5828 5829 5828 5828 5827 5828 5828 5828 5828 5828 5827 5827 5826 5825 5824 5823 5823 5822 5821 5820 5820 5819 5818 5817 5816 5815 5815 5816 5816 5816 5817 5817 5817 5818 5818 5819 5819 5819 5820 5820 5821 5821 5821 5822 5822 5822 5822 5822 5822 5822 5822 5821 5821 5821 5820 5820 5820 5819 5819 5819 5818 5818 5817 5817 5816 5816 5816
5823 5823 5823 5823 5824 5824 5824 5824 5824 5825 5824 5823 5823 5823 5825 5826 5825 5825 5827 5828 5827 5827 5827 5828 5828 5828 5828 5827 5827 5826 5825 5824 5823 5822 5822 5821 5820 5820 5819 5818 5817 5816 5815 5814 5814 5814 5815 5815 5815 5815 5816 5816 5817 5818 5818 5818 5819 5819 5820 5820 5820 5821 5821 5821 5821 5821 5821 5821 5821 5820 5820 5820 5820 5819 5819 5819 5818 5818 5818 5817 5817 5816 5815 5815 5814
5821 5821 5822 5822 5822 5822 5822 5823 5823 5823 5823 5822 5821 5822 5825 5825 5824 5825 5827 5826 5826 5827 5827 5828 5828 5827 5827 5827 5826 5825 5824 5823 5822 5821 5821 5820 5819 5819 5818 5817 5816 5815 5814 5814 5813 5813 5814 5814 5814 5814 5815 5815 5816 5816 5817 5818 5818 5818 5819 5819 5820 5820 5820 5820 5820 5820 5820 5820 5820 5820 5819 5819 5819 5819 5818 5818 5818 5817 5817 5816 5816 5815 5814 5814 5813
5819 5820 5820 5821 5821 5821 5821 5822 5822 5822 5822 5821 5820 5821 5823 5823 5823 5824 5826 5825 5825 5826 5827 5827 5827 5827 5827 5826 5826 5824 5823 5822 5821 5821 5820 5819 5818 5818 5817 5817 5816 5815 5814 5813 5813 5813 5813 5813 5813 5814 5814 5815 5815 5816 5816 5817 5817 5818 5818 5819 5819 5819 5819 5819 5819 5819 5819 5819 5819 5819 5818 5818 5818 5818 5817 5817 5817 5816 5816 5815 5815 5814 5813 5812 5811
5817 5818 5819 5820 5820 5820 5821 5821 5821 5821 5821 5820 5820 5820 5821 5821 5821 5823 5824 5824 5825 5825 5826 5827 5826 5826 5826 5826 5825 5824 5823 5822 5821 5820 5820 5819 5818 5817 5817 5816 5816 5815 5814 5813 5813 5812 5812 5812 5812 5813 5814 5815 5815 5816 5816 5817 5817 5817 5818 5818 5818 5818 5818 5818 5818 5818 5818 5818 5818 5818 5817 5817 5817 5817 5816 5816 5815 5815 5814 5814 5813 5812 5811 5811 5810
5815 5816 5818 5819 5819 5819 5820 5820 5821 5821 5820 5819 5820 5820 5820 5820 5820 5821 5823 5823 5824 5824 5825 5826 5826 5825 5825 5825 5824 5823 5823 5822 5821 5820 5819 5818 5818 5817 5817 5816 5816 5815 5814 5813 5812 5812 5812 5812 5812 5813 5813 5814 5814 5815 5816 5816 5816 5817 5817 5817 5818 5818 5818 5818 5818 5817 5817 5817 5817 5817 5816 5816 5816 5816 5815 5815 5815 5814 5814 5813 5812 5811 5810 5809 5809
5813 5814 5816 5817 5817 5818 5819 5820 5820 5820 5819 5818 5819 5820 5819 5819 5818 5820 5821 5821 5822 5823 5824 5825 5825 5824 5824 5824 5824 5823 5823 5822 5821 5820 5819 5818 5818 5817 5817 5816 5815 5814 5814 5813 5812 5812 5812 5812 5812 5813 5813 5813 5814 5814 5815 5815 5816 5816 5816 5817 5817 5817 5817 5817 5817 5817 5816 5816 5816 5816 5815 5815 5815 5815 5815 5814 5814 5813 5813 5812 5812 5811 5810 5809 5808
5811 5812 5814 5815 5816 5816 5817 5819 5819 5819 5818 5818 5818 5819 5818 5818 5818 5819 5819 5820 5821 5821 5822 5824 5824 5823 5823 5823 5823 5823 5822 5822 5821 5820 5819 5818 5817 5817 5816 5816 5815 5814 5813 5813 5812 5812 5812 5812 5812 5813 5813 5813 5814 5814 5814 5815 5815 5815 5816 5816 5816 5816 5816 5816 5816 5816 5816 5815 5815 5815 5815 5815 5815 5814 5814 5814 5813 5813 5813 5812 5812 5811 5810 5809 5809
5810 5811 5812 5813 5814 5815 5816 5818 5818 5818 5818 5817 5818 5818 5817 5816 5817 5818 5818 5818 5819 5820 5821 5822 5823 5822 5822 5822 5822 5822 5822 5821 5820 5819 5818 5818 5817 5816 5816 5815 5815 5814 5814 5813 5812 5812 5812 5812 5812 5812 5812 5813 5814 5814 5814 5814 5815 5815 5815 5815 5815 5816 5816 5815 5815 5815 5815 5815 5815 5815 5815 5814 5814 5814 5814 5813 5813 5813 5812 5812 5811 5811 5810 5809 5808
5808 5810 5811 5812 5812 5814 5815 5817 5817 5817 5817 5816 5817 5817 5816 5815 5816 5817 5817 5817 5818 5819 5820 5821 5821 5821 5821 5821 5821 5821 5821 5820 5819 5818 5818 5817 5817 5816 5816 5815 5815 5814 5814 5813 5813 5812 5812 5812 5811 5812 5813 5813 5814 5814 5814 5814 5815 5815 5815 5815 5815 5815 5815 5815 5815 5815 5815 5815 5814 5814 5814 5814 5814 5814 5813 5813 5813 5812 5812 5811 5811 5810 5810 5809 5808
5807 5808 5809 5810 5811 5813 5814 5816 5816 5816 5816 5815 5816 5816 5815 5815 5815 5816 5816 5816 5817 5818 5819 5820 5820 5820 5820 5820 5820 5820 5820 5819 5819 5818 5817 5817 5816 5816 5815 5815 5814 5814 5814 5814 5813 5812 5812 5812 5812 5812 5813 5813 5814 5814 5814 5814 5815 5815 5815 5815 5815 5815 5815 5815 5815 5815 5814 5814 5814 5814 5814 5814 5813 5813 5813 5813 5812 5812 5811 5811 5810 5810 5809 5809 5808
5806 5806 5807 5808 5810 5811 5813 5814 5815 5815 5816 5815 5815 5815 5814 5814 5815 5815 5815 5815 5816 5817 5818 5819 5819 5819 5819 5819 5819 5819 5819 5819 5818 5818 5817 5817 5816 5816 5815 5815 5814 5814 5814 5814 5813 5813 5812 5812 5812 5813 5813 5813 5813 5813 5814 5814 5814 5815 5815 5815 5815 5815 5814 5814 5814 5814 5814 5814 5813 5813 5813 5813 5813 5813 5812 5812 5812 5811 5811 5810 5810 5809 5809 5808 5807
5804 5805 5806 5807 5808 5810 5812 5813 5814 5814 5815 5815 5815 5814 5813 5814 5814 5814 5814 5814 5815 5816 5817 5817 5818 5818 5818 5818 5818 5818 5818 5818 5818 5817 5816 5816 5816 5815 5815 5815 5814 5814 5814 5814 5813 5813 5813 5813 5813 5813 5813 5813 5813 5813 5813 5814 5814 5814 5815 5815 5815 5814 5814 5814 5814 5814 5814 5813 5813 5812 5812 5812 5812 5812 5811 5811 5811 5810 5810 5809 5809 5808 5808 5807 5806
5803 5803 5804 5806 5807 5809 5810 5811 5812 5812 5813 5814 5814 5813 5813 5814 5813 5813 5813 5813 5814 5815 5816 5816 5816 5817 5817 5817 5817 5817 5817 5817 5816 5816 5815 5815 5815 5815 5814 5814 5814 5814 5813 5813 5813 5813 5813 5813 5813 5813 5813 5813 5813 5813 5813 5813 5813 5814 5814 5814 5814 5814 5814 5813 5813 5813 5813 5813 5812 5812 5812 5811 5811 5811 5811 5810 5810 5809 5809 5808 5808 5807 5807 5806 5805
5801 5802 5803 5804 5806 5807 5808 5809 5810 5811 5812 5812 5812 5812 5813 5813 5813 5812 5813 5813 5813 5814 5814 5814 5815 5816 5816 5816 5816 5816 5816 5816 5815 5814 5814 5814 5813 5813 5813 5813 5813 5813 5813 5813 5813 5813 5813 5812 5812 5812 5812 5812 5812 5812 5812 5813 5813 5813 5813 5813 5813 5813 5813 5813 5812 5812 5812 5812 5812 5811 5811 5811 5810 5810 5810 5809 5809 5808 5808 5807 5807 5806 5805 5805 5804
5799 5800 5802 5803 5805 5805 5806 5807 5808 5809 5810 5810 5810 5811 5812 5812 5812 5812 5812 5812 5813 5813 5813 5813 5814 5814 5814 5815 5815 5815 5815 5815 5814 5813 5813 5812 5812 5812 5812 5812 5812 5813 5812 5812 5812 5812 5812 5812 5812 5812 5812 5812 5812 5812 5812 5812 5812 5812 5812 5813 5813 5813 5812 5812 5812 5811 5811 5811 5811 5810 5810 5810 5809 5809 5809 5808 5808 5807 5806 5806 5805 5805 5804 5804 5803
5797 5799 5801 5802 5803 5804 5804 5805 5806 5807 5808 5808 5809 5810 5810 5810 5810 5811 5811 5811 5811 5811 5811 5812 5813 5813 5813 5813 5814 5814 5814 5813 5813 5812 5812 5811 5811 5811 5811 5811 5811 5812 5812 5811 5811 5811 5811 5811 5811 5811 5812 5812 5812 5812 5812 5812 5812 5812 5812 5812 5812 5812 5811 5811 5811 5810 5810 5810 5809 5809 5809 5809 5808 5808 5807 5807 5807 5806 5805 5805 5804 5803 5803 5802 5802
5795 5797 5799 5800 5801 5802 5802 5803 5804 5805 5806 5807 5808 5808 5808 5808 5809 5809 5810 5810 5809 5809 5810 5810 5811 5811 5811 5812 5812 5813 5813 5812 5812 5811 5811 5810 5810 5810 5810 5810 5810 5811 5811 5811 5810 5810 5810 5810 5811 5811 5811 5811 5811 5811 5811 5811 5811 5811 5811 5811 5811 5811 5810 5810 5809 5809 5809 5809 5808 5808 5808 5807 5807 5807 5806 5806 5806 5805 5804 5804 5803 5803 5802 5801 5801
5793 5794 5796 5798 5799 5800 5801 5801 5802 5803 5804 5805 5806 5806 5806 5807 5807 5807 5807 5808 5807 5807 5807 5808 5808 5809 5810 5810 5811 5811 5811 5811 5810 5810 5810 5809 5809 5809 5809 5809 5809 5810 5810 5810 5809 5809 5809 5810 5810 5810 5810 5810 5810 5810 5810 5810 5810 5810 5810 5810 5810 5810 5809 5809 5808 5808 5808 5808 5807 5807 5807 5807 5806 5806 5806 5805 5805 5804 5804 5803 5802 5802 5801 5801 5800
5791 5792 5794 5796 5797 5798 5799 5800 5800 5801 5801 5803 5803 5804 5804 5805 5805 5805 5805 5805 5805 5805 5805 5806 5806 5807 5808 5809 5809 5810 5810 5809 5809 5809 5809 5808 5808 5808 5808 5808 5808 5809 5808 5808 5808 5808 5808 5809 5809 5809 5809 5809 5809 5809 5809 5809 5809 5809 5809 5809 5809 5809 5808 5808 5808 5807 5807 5807 5806 5806 5806 5806 5806 5805 5805 5805 5804 5804 5803 5802 5802 5801 5801 5800 5799
5789 5791 5792 5794 5795 5797 5797 5798 5798 5798 5799 5800 5801 5802 5802 5803 5803 5803 5803 5803 5803 5803 5804 5804 5805 5805 5806 5807 5808 5808 5808 5807 5807 5807 5807 5807 5807 5807 5807 5807 5808 5808 5807 5807 5806 5807 5808 5808 5807 5808 5808 5808 5808 5808 5808 5808 5808 5808 5808 5808 5808 5808 5808 5807 5807 5807 5806 5806 5806 5805 5805 5805 5805 5805 5804 5804 5803 5803 5802 5802 5801 5801 5800 5799 5798
5788 5789 5790 5791 5793 5794 5795 5795 5795 5796 5797 5797 5798 5799 5800 5800 5801 5801 5801 5801 5801 5801 5802 5802 5803 5804 5805 5805 5806 5806 5805 5805 5805 5806 5806 5806 5806 5806 5806 5807 5807 5807 5806 5805 5805 5806 5806 5806 5806 5806 5807 5807 5807 5807 5807 5807 5807 5807 5807 5807 5807 5807 5807 5807 5806 5806 5806 5805 5805 5805 5804 5804 5804 5803 5803 5803 5802 5802 5801 5801 5800 5800 5799 5798 5797
5785 5786 5787 5789 5790 5792 5792 5792 5793 5794 5795 5795 5796 5797 5797 5798 5799 5799 5799 5799 5799 5800 5800 5800 5801 5802 5803 5804 5804 5804 5803 5803 5803 5804 5804 5805 5805 5805 5805 5806 5806 5805 5804 5803 5804 5805 5805 5805 5805 5805 5805 5805 5806 5806 5806 5806 5806 5806 5806 5806 5806 5806 5806 5806 5805 5805 5805 5804 5804 5804 5803 5803 5802 5802 5801 5801 5801 5800 5800 5799 5799 5798 5797 5797 5796
5781 5782 5784 5786 5787 5789 5789 5790 5791 5792 5792 5793 5794 5795 5795 5796 5797 5798 5798 5798 5798 5798 5799 5799 5800 5801 5802 5802 5802 5802 5802 5802 5802 5802 5803 5803 5804 5804 5805 5805 5805 5804 5803 5802 5803 5804 5804 5804 5804 5804 5804 5804 5804 5804 5805 5805 5805 5805 5805 5805 5805 5805 5805 5805 5804 5804 5804 5803 5803 5802 5802 5801 5800 5800 5799 5799 5799 5798 5798 5798 5797 5796 5796 5795 5794
5778 5779 5781 5783 5784 5786 5786 5787 5788 5789 5790 5792 5792 5793 5793 5794 5795 5795 5796 5796 5796 5797 5798 5798 5798 5799 5800 5800 5800 5800 5800 5800 5800 5800 5801 5802 5802 5803 5804 5804 5803 5802 5801 5801 5802 5803 5803 5803 5803 5803 5803 5803 5803 5803 5803 5803 5803 5803 5803 5803 5803 5803 5803 5803 5803 5802 5802 5802 5801 5801 5800 5799 5798 5798 5797 5797 5797 5796 5796 5795 5795 5795 5794 5793 5793
5776 5777 5779 5780 5781 5783 5784 5784 5785 5787 5788 5789 5790 5791 5791 5792 5793 5793 5794 5794 5795 5796 5796 5796 5797 5797 5797 5798 5799 5798 5798 5798 5798 5798 5799 5800 5801 5801 5802 5802 5802 5801 5800 5800 5801 5802 5801 5801 5801 5801 5801 5801 5801 5802 5802 5802 5802 5802 5802 5802 5802 5802 5802 5801 5801 5801 5800 5800 5800 5799 5798 5798 5797 5796 5795 5795 5795 5794 5794 5793 5793 5792 5792 5791 5791
5773 5775 5776 5777 5778 5780 5781 5782 5783 5784 5786 5787 5788 5789 5790 5790 5791 5791 5792 5793 5794 5794 5794 5795 5795 5795 5795 5796 5797 5797 5796 5796 5796 5797 5797 5798 5799 5799 5800 5800 5800 5799 5799 5799 5800 5801 5800 5800 5800 5800 5800 5800 5800 5800 5800 5800 5800 5800 5800 5800 5800 5800 5800 5800 5799 5799 5799 5799 5798 5797 5797 5796 5795 5794 5793 5793 5792 5792 5791 5791 5790 5790 5790 5789 5789
5771 5772 5773 5775 5776 5777 5779 5780 5781 5782 5783 5784 5785 5787 5787 5788 5789 5789 5790 5791 5792 5792 5792 5793 5792 5792 5793 5794 5795 5795 5795 5795 5795 5795 5795 5796 5796 5797 5797 5798 5798 5797 5797 5798 5798 5799 5799 5798 5798 5798 5798 5798 5798 5798 5798 5798 5799 5798 5798 5798 5798 5798 5798 5798 5798 5798 5797 5797 5796 5795 5795 5794 5793 5792 5791 5790 5790 5789 5789 5788 5788 5788 5787 5787 5786
5768 5769 5771 5772 5773 5774 5776 5778 5779 5779 5781 5782 5783 5784 5785 5786 5787 5787 5788 5788 5789 5789 5790 5790 5790 5790 5791 5791 5792 5793 5793 5793 5793 5793 5793 5794 5795 5795 5795 5795 5796 5795 5795 5796 5796 5797 5797 5797 5796 5797 5797 5797 5797 5797 5797 5797 5797 5797 5797 5797 5797 5796 5796 5796 5796 5796 5795 5795 5794 5793 5792 5792 5791 5789 5788 5788 5787 5787 5786 5786 5785 5785 5785 5784 5784
5765 5766 5768 5769 5770 5771 5773 5776 5777 5777 5778 5779 5781 5782 5783 5784 5785 5785 5786 5786 5787 5787 5787 5788 5788 5788 5789 5789 5789 5790 5791 5791 5791 5791 5791 5792 5793 5793 5793 5793 5793 5792 5792 5793 5794 5795 5795 5795 5795 5795 5795 5795 5795 5795 5795 5795 5795 5795 5795 5795 5795 5795 5795 5794 5794 5794 5793 5793 5792 5791 5790 5789 5788 5787 5786 5785 5784 5784 5783 5783 5783 5782 5781 5781 5780
5763 5764 5766 5766 5767 5769 5771 5773 5774 5775 5776 5777 5779 5780 5781 5782 5783 5783 5784 5784 5784 5784 5785 5785 5786 5786 5786 5786 5787 5788 5788 5789 5789 5790 5790 5791 5791 5792 5791 5791 5791 5790 5790 5791 5791 5792 5793 5793 5793 5793 5793 5793 5793 5793 5793 5793 5793 5793 5793 5793 5793 5793 5792 5792 5792 5791 5791 5790 5789 5789 5788 5787 5786 5784 5783 5783 5782 5781 5781 5780 5780 5779 5778 5777 5777
5761 5763 5764 5765 5765 5766 5768 5770 5771 5772 5774 5775 5777 5778 5779 5780 5781 5781 5781 5781 5781 5782 5783 5783 5783 5784 5784 5784 5785 5785 5786 5787 5788 5788 5789 5789 5790 5790 5790 5790 5789 5789 5789 5789 5789 5790 5791 5791 5791 5791 5791 5791 5791 5791 5791 5791 5791 5791 5791 5790 5790 5790 5790 5789 5789 5788 5788 5787 5787 5786 5785 5784 5783 5782 5781 5780 5779 5778 5778 5777 5776 5775 5774 5774 5773
5759 5760 5762 5763 5764 5765 5767 5768 5768 5770 5772 5773 5775 5775 5776 5777 5778 5779 5779 5779 5779 5780 5780 5781 5781 5781 5782 5782 5783 5783 5784 5785 5786 5786 5787 5787 5788 5788 5788 5788 5788 5788 5789 5788 5788 5789 5789 5789 5789 5789 5789 5789 5789 5789 5789 5789 5789 5788 5788 5788 5788 5787 5787 5786 5786 5785 5785 5784 5783 5782 5781 5781 5780 5779 5778 5777 5776 5775 5774 5773 5773 5772 5771 5770 5769
5756 5757 5759 5760 5761 5762 5764 5766 5766 5767 5769 5771 5772 5773 5774 5775 5775 5776 5776 5777 5777 5778 5778 5778 5779 5779 5779 5780 5781 5781 5782 5783 5784 5785 5785 5785 5786 5786 5786 5786 5786 5786 5787 5787 5787 5787 5787 5787 5787 5787 5787 5787 5787 5786 5786 5786 5786 5786 5785 5785 5785 5784 5784 5783 5782 5782 5781 5780 5779 5778 5778 5777 5776 5775 5775 5774 5773 5772 5771 5770 5769 5768 5767 5766 5765
5754 5755 5757 5757 5758 5759 5762 5763 5764 5766 5767 5768 5769 5770 5771 5772 5772 5773 5774 5775 5775 5775 5776 5776 5776 5777 5777 5778 5778 5779 5780 5780 5781 5782 5782 5782 5783 5784 5784 5785 5784 5784 5784 5784 5784 5784 5784 5784 5784 5784 5784 5784 5784 5783 5783 5783 5783 5783 5782 5782 5782 5781 5780 5780 5779 5778 5777 5777 5775 5775 5774 5773 5772 5772 5771 5770 5769 5768 5767 5766 5765 5764 5763 5762 5760
5751 5752 5753 5754 5755 5757 5759 5761 5762 5763 5764 5765 5766 5767 5768 5769 5769 5770 5772 5772 5772 5773 5773 5774 5774 5775 5775 5775 5776 5776 5777 5778 5778 5779 5779 5779 5780 5781 5782 5782 5782 5781 5781 5781 5782 5782 5782 5782 5782 5781 5781 5781 5780 5780 5780 5780 5780 5780 5779 5778 5778 5777 5777 5776 5775 5774 5773 5773 5772 5771 5770 5769 5768 5767 5767 5766 5765 5764 5763 5762 5761 5760 5758 5757 5756
5747 5748 5750 5751 5753 5755 5757 5758 5759 5761 5761 5762 5763 5765 5766 5766 5767 5768 5769 5769 5770 5770 5771 5771 5772 5773 5773 5773 5774 5774 5774 5775 5775 5776 5776 5776 5776 5777 5778 5779 5778 5778 5778 5778 5778 5778 5779 5779 5779 5778 5778 5777 5777 5776 5776 5776 5776 5775 5775 5774 5774 5773 5772 5772 5771 5770 5769 5769 5768 5767 5767 5766 5764 5763 5762 5761 5760 5759 5758 5757 5756 5755 5753 5752 5751
5744 5745 5747 5749 5751 5753 5755 5756 5757 5758 5758 5760 5761 5762 5763 5764 5764 5765 5766 5766 5767 5768 5768 5769 5770 5772 5773 5772 5772 5772 5772 5772 5773 5773 5773 5773 5773 5773 5774 5774 5775 5775 5775 5775 5775 5774 5774 5775 5775 5775 5774 5774 5773 5772 5772 5772 5771 5770 5770 5770 5770 5769 5768 5768 5768 5767 5766 5765 5764 5763 5763 5762 5761 5760 5758 5757 5756 5754 5753 5752 5751 5749 5748 5746 5746
5741 5743 5745 5747 5749 5751 5752 5753 5754 5755 5756 5757 5758 5759 5760 5761 5762 5763 5763 5764 5765 5765 5766 5766 5768 5769 5770 5770 5769 5769 5769 5769 5770 5770 5770 5770 5770 5770 5770 5770 5770 5770 5771 5771 5771 5771 5771 5771 5771 5770 5770 5770 5770 5769 5768 5768 5767 5767 5766 5766 5766 5765 5764 5765 5765 5764 5763 5761 5760 5758 5757 5756 5754 5753 5752 5751 5750 5749 5748 5746 5745 5743 5742 5741 5740
5740 5742 5743 5744 5746 5748 5749 5750 5751 5753 5754 5754 5755 5756 5757 5758 5759 5761 5761 5762 5762 5763 5763 5764 5765 5766 5766 5766 5767 5767 5766 5766 5766 5767 5767 5767 5767 5767 5767 5767 5766 5765 5766 5766 5767 5767 5767 5767 5767 5766 5766 5766 5766 5766 5766 5765 5764 5764 5763 5763 5762 5761 5761 5761 5761 5760 5758 5756 5755 5754 5753 5751 5749 5747 5746 5745 5744 5743 5742 5740 5738 5737 5735 5735 5733
5738 5740 5741 5742 5744 5745 5745 5747 5748 5750 5751 5751 5752 5753 5754 5755 5757 5758 5759 5759 5760 5760 5761 5762 5762 5763 5763 5763 5764 5763 5763 5763 5762 5763 5763 5763 5764 5764 5764 5764 5763 5763 5762 5762 5762 5762 5762 5763 5763 5762 5762 5761 5761 5761 5761 5761 5760 5760 5759 5759 5758 5758 5757 5758 5757 5755 5753 5752 5751 5750 5749 5747 5746 5744 5743 5741 5739 5737 5736 5733 5731 5730 5729 5727 5726
5736 5737 5738 5740 5741 5741 5742 5744 5745 5747 5748 5749 5749 5750 5751 5752 5754 5755 5756 5757 5757 5757 5758 5759 5759 5760 5760 5761 5760 5760 5760 5760 5759 5759 5759 5760 5760 5760 5760 5760 5760 5760 5759 5759 5758 5757 5757 5757 5757 5757 5757 5756 5756 5756 5756 5756 5756 5755 5754 5753 5753 5753 5753 5752 5751 5749 5748 5747 5746 5746 5745 5742 5741 5741 5739 5737 5735 5733 5731 5728 5726 5725 5723 5721 5718
5733 5734 5735 5737 5738 5739 5740 5741 5742 5744 5745 5746 5747 5748 5748 5749 5750 5751 5752 5754 5754 5754 5755 5756 5756 5756 5757 5758 5758 5758 5758 5757 5757 5756 5756 5756 5756 5756 5756 5756 5756 5756 5756 5756 5755 5755 5754 5754 5753 5753 5752 5752 5752 5751 5751 5751 5750 5750 5749 5747 5747 5748 5747 5745 5743 5741 5741 5740 5738 5738 5738 5736 5735 5734 5732 5730 5728 5727 5724 5722 5720 5718 5716 5713 5710
5731 5732 5733 5734 5735 5737 5738 5739 5740 5741 5742 5743 5744 5745 5746 5746 5747 5748 5749 5750 5751 5752 5752 5753 5753 5753 5754 5754 5754 5755 5755 5755 5754 5753 5752 5752 5752 5752 5752 5752 5752 5752 5751 5751 5751 5751 5751 5750 5750 5749 5749 5748 5748 5747 5747 5746 5745 5745 5744 5743 5743 5743 5741 5739 5737 5736 5735 5733 5732 5731 5730 5730 5729 5727 5724 5721 5719 5718 5716 5713 5711 5709 5707 5704 5701
5728 5729 5730 5732 5733 5734 5735 5736 5737 5738 5739 5740 5741 5742 5743 5743 5744 5745 5745 5746 5747 5748 5749 5749 5750 5750 5750 5750 5751 5752 5753 5751 5749 5748 5749 5748 5748 5749 5749 5748 5748 5747 5747 5747 5747 5747 5746 5746 5746 5745 5745 5745 5744 5743 5742 5741 5740 5740 5739 5738 5738 5737 5735 5733 5732 5731 5729 5728 5727 5725 5724 5724 5722 5719 5716 5713 5711 5709 5707 5704 5702 5700 5698 5695 5692
5725 5726 5728 5729 5730 5731 5731 5733 5734 5735 5736 5737 5738 5739 5740 5740 5741 5742 5742 5743 5744 5744 5745 5745 5746 5746 5747 5747 5747 5749 5750 5748 5745 5744 5745 5745 5745 5745 5745 5745 5744 5744 5744 5743 5742 5742 5742 5741 5741 5741 5740 5740 5740 5739 5738 5736 5735 5735 5734 5733 5733 5732 5730 5729 5727 5726 5724 5722 5720 5719 5718 5717 5714 5711 5710 5707 5703 5702 5700 5697 5694 5692 5689 5687 5683
5722 5723 5725 5726 5727 5728 5728 5729 5730 5731 5732 5733 5734 5736 5737 5737 5738 5739 5739 5739 5740 5741 5741 5741 5742 5742 5742 5743 5743 5745 5746 5745 5743 5742 5742 5742 5741 5741 5741 5741 5741 5741 5741 5740 5739 5738 5737 5737 5736 5736 5736 5736 5736 5735 5734 5732 5730 5730 5729 5727 5727 5726 5725 5724 5722 5720 5718 5715 5712 5710 5710 5709 5706 5703 5702 5700 5696 5693 5692 5689 5686 5683 5680 5677 5674
5720 5720 5721 5722 5723 5724 5725 5726 5727 5728 5729 5730 5731 5732 5733 5734 5735 5736 5735 5736 5737 5737 5737 5737 5737 5738 5738 5738 5739 5740 5741 5740 5740 5739 5739 5739 5738 5738 5737 5737 5737 5737 5737 5736 5735 5734 5734 5733 5733 5733 5732 5732 5731 5731 5729 5727 5725 5724 5723 5722 5720 5719 5718 5717 5715 5714 5712 5709 5705 5702 5701 5700 5697 5694 5693 5691 5687 5685 5683 5680 5677 5674 5671 5669 5666
5716 5717 5718 5719 5720 5720 5721 5723 5724 5725 5726 5727 5728 5729 5730 5731 5731 5732 5731 5732 5733 5733 5733 5733 5733 5733 5734 5734 5734 5735 5735 5735 5735 5735 5735 5734 5734 5734 5733 5733 5733 5733 5733 5732 5732 5731 5730 5729 5729 5728 5728 5727 5727 5725 5723 5721 5719 5718 5717 5715 5714 5712 5711 5709 5707 5706 5705 5702 5699 5695 5692 5691 5689 5685 5684 5681 5677 5675 5674 5671 5668 5666 5663 5660 5658